Location: Auttagershofen
(48.1940°N, 10.0237°E)
Time: 21:37:30
(UTC+00:00)

Lacrosse 5 rocket - Pass Details

Date: 13 April 2026
Orbit: 390 x 471 km, 57.0° (Epoch: 19 May)

Event Time Altitude Azimuth Distance (km) Brightness Sun altitude
Rises 20:10:07 0° 257° (WSW) 2,293 5.0 -18.9°
Reaches altitude 10° 20:12:18 10° 267° (W) 1,432 4.1 -19.2°
Maximum altitude 20:15:14 34° 334° (NNW) 677 2.3 -19.5°
Enters shadow 20:17:57 11° 40° (NE) 1,349 3.3 -19.9°
